Location: Alsip
(41.6689°N, 87.7387°W)
Time: 12:49:27
(UTC+00:00)

Landsat 5 - Pass Details

Date: 14 July 2020
Orbit: 528 x 654 km, 98.2° (Epoch: 05 August)

Event Time Altitude Azimuth Distance (km) Brightness Sun altitude
Rises 09:32:05 0° 171° (S) 2,726 6.6 -9.5°
Reaches altitude 10° 09:34:14 10° 174° (S) 1,819 5.6 -9.2°
Maximum altitude 09:38:08 69° 257° (WSW) 581 3.2 -8.7°
Drops below altitude 10° 09:41:58 10° 342° (NNW) 1,792 6.2 -8.1°
Sets 09:44:05 0° 345° (NNW) 2,681 7.2 -7.8°
